CAPE
0 0 124 0 0 0 0 4 2 28 104 199 18 25 88 174 83 52 229 95 89 452 690 946 1131 1047 1122 950 933 1057 1059 1142 1245 1174 1022 1322 1416 1415 1443 1354 1363 1364 1212 1521 1829 2307 2136 1859 1641
0 13 0 0 0 0 15 6 16 33 154 185 108 134 92 132 573 339 74 129 170 511 809 892 959 981 1020 1202 886 934 699 696 801 755 908 1099 1407 1484 1356 1258 1210 1295 1504 1311 1245 1700 2030 2033 1830
119 110 0 0 0 0 21 78 161 313 281 245 297 285 158 37 447 107 174 156 353 511 777 919 964 1028 971 1102 1279 1353 1073 813 615 548 799 1163 1387 1414 1425 1429 1453 1596 1714 1842 1826 1437 1477 2007 1787
153 2 6 2 0 20 99 109 16 286 250 295 303 151 311 558 323 164 307 161 156 568 756 1086 1064 992 876 1115 1063 1416 1349 1241 991 948 1483 1723 1634 1590 1622 1468 1141 1379 1311 1051 1422 1865 1541 1555 1805
310 15 16 9 6 0 32 98 52 192 245 237 240 127 345 580 455 397 405 174 55 474 723 984 1085 973 924 828 1127 1213 1317 1298 1414 1482 1528 1647 1404 884 820 897 929 1150 1302 1307 1317 1774 1701 1579 1648
3 25 14 28 9 8 23 82 138 451 367 183 153 135 249 482 491 468 488 378 216 227 841 953 1078 1035 1354 1020 1054 1298 1386 1168 1261 1371 1228 1177 1249 1212 1233 886 776 902 1051 1201 1215 1478 1645 1704 1583
0 30 6 42 87 129 71 47 8 261 320 174 204 109 258 622 525 487 421 567 501 459 969 1025 1134 1133 1312 1521 1387 1293 1330 1403 1015 1384 1406 1435 1178 891 677 313 467 721 961 1096 1482 1259 1700 1468 436
18 2 0 1 19 12 229 92 109 346 241 292 84 91 152 658 552 367 415 569 551 589 861 896 1077 935 1351 1569 1296 1583 1267 1424 1449 1397 1177 506 441 407 331 306 359 867 1057 1265 1319 1366 1542 1379 512
5 0 0 0 10 64 436 175 198 388 400 296 128 163 296 634 442 413 259 293 252 205 438 808 846 786 1013 1045 1132 1470 1464 1444 907 549 539 617 357 161 267 203 254 338 1211 1371 1375 1416 1514 1346 667
10 0 0 0 18 65 139 167 311 416 381 331 139 282 508 647 572 400 142 75 126 248 379 713 695 735 614 975 1109 790 959 538 333 69 178 151 78 53 67 114 249 285 869 1383 1405 1704 1300 1282 352
2 1 0 4 23 82 61 206 445 353 294 276 129 366 637 678 558 408 195 167 164 314 574 728 715 785 671 650 653 705 298 195 121 102 81 66 12 34 99 18 23 91 268 829 1241 1367 769 437 402
0 0 0 16 41 27 6 20 288 415 228 272 262 515 654 634 603 511 426 407 291 320 457 738 632 642 631 518 527 375 297 190 167 73 80 67 13 7 0 0 0 91 151 197 419 542 373 192 158
0 0 0 11 8 4 3 14 109 336 361 262 376 541 542 622 652 669 607 519 405 310 383 591 540 588 531 515 512 440 195 117 86 79 20 20 3 0 0 0 1 30 78 170 259 219 138 99 77
0 0 0 0 0 0 1 29 72 211 169 249 336 358 482 526 554 475 542 451 379 314 350 497 393 412 393 437 353 234 145 80 59 37 11 13 8 1 0 0 0 53 110 159 191 189 41 4 230
0 0 0 0 0 4 24 7 100 295 193 315 315 289 309 363 345 384 398 422 380 332 332 327 510 406 356 316 294 111 44 58 111 81 11 2 1 14 22 10 0 0 127 175 96 73 17 101 78
0 0 0 0 2 0 0 0 288 282 254 288 284 320 373 400 382 444 452 420 359 275 290 363 560 505 303 134 124 22 56 100 193 134 8 2 2 1 4 1 3 0 179 144 126 151 95 143 270
0 0 0 0 0 6 19 30 305 240 252 326 7 62 403 216 446 343 433 433 446 371 272 334 419 402 246 131 84 88 179 209 222 143 45 5 1 5 0 4 0 22 171 150 203 187 279 262 23
0 0 0 0 0 32 66 149 315 300 338 132 37 86 116 173 40 93 336 350 436 417 389 322 390 441 444 396 368 335 219 227 265 135 53 22 55 23 15 3 2 110 193 226 31 112 281 75 16
0 0 0 0 0 1 4 15 47 188 262 112 0 10 191 154 38 78 261 479 475 501 455 524 597 616 609 508 538 393 525 445 284 179 79 196 198 95 23 4 12 106 373 403 412 210 254 108 156
0 0 0 0 0 0 0 0 18 23 95 97 59 99 193 229 166 310 315 561 509 481 507 595 608 517 613 608 501 561 486 331 292 230 250 276 172 90 81 80 7 89 241 276 157 36 343 235 173
0 0 0 0 0 0 3 38 78 122 123 159 165 78 78 86 155 217 339 496 581 617 551 529 652 726 594 540 574 455 369 242 267 279 277 255 219 124 53 43 13 72 118 133 347 285 306 106 158
0 0 0 0 0 0 1 53 2 120 114 31 132 31 81 1 80 131 270 506 637 689 637 625 608 648 719 681 596 484 442 454 304 214 198 178 172 156 100 106 87 108 153 162 341 476 136 106 54
0 0 0 0 0 0 1 13 6 18 65 91 55 72 18 55 98 197 267 339 554 659 664 692 682 680 721 730 718 618 522 439 297 115 74 112 66 77 86 124 84 97 155 146 175 132 412 413 245
0 0 0 0 0 0 0 7 41 78 153 188 252 107 25 109 171 252 198 147 286 557 750 724 647 612 678 665 652 680 639 480 320 116 85 86 28 38 132 194 85 88 168 78 95 125 366 615 585
0 0 0 0 0 0 1 0 9 19 216 293 289 250 54 7 82 226 210 152 86 230 615 771 725 747 687 690 706 644 564 448 315 189 88 117 63 32 75 71 44 83 466 310 55 789 614 723 660
0 0 0 0 0 0 4 0 7 0 45 543 456 454 266 20 0 51 98 155 105 298 470 748 811 863 808 746 646 461 437 364 372 214 117 123 54 50 38 8 9 28 319 526 676 668 588 611 923
0 0 0 0 0 0 0 0 0 1 210 709 719 738 606 361 265 159 200 259 259 247 116 240 316 845 918 840 731 576 491 552 509 251 136 161 126 121 61 6 0 35 259 421 763 773 792 661 665
0 0 0 0 0 0 4 0 0 0 419 776 915 941 962 852 798 873 952 1031 1083 620 169 66 522 967 1139 1084 1024 823 779 698 670 386 207 238 283 228 169 80 25 69 219 395 678 836 983 807 567
0 0 0 0 0 0 0 6 5 0 20 524 1174 1070 972 916 955 1052 1194 1327 1469 1423 1006 1030 1067 1246 1366 1550 1443 1194 1004 937 706 580 295 296 435 297 197 231 104 77 146 283 473 599 915 820 694
0 0 0 0 0 0 0 5 128 0 11 574 1170 1074 893 714 635 474 297 257 489 745 1198 1454 1525 1505 1410 1210 1375 1351 1030 585 852 709 721 426 428 459 315 245 238 193 171 198 276 470 552 529 455
CIN
-0 -0 -296 -0 -0 -0 -6 -107 -150 -71 -64 -53 -115 -86 -55 -113 -85 -60 -244 -261 -248 -104 -22 -1 -0 -7 -5 -10 -16 -16 -18 -21 -16 -20 -32 -21 -16 -10 -15 -23 -30 -30 -38 -17 -10 -0 -1 -0 -0
-0 -171 -0 -0 -0 -0 -67 -61 -107 -65 -73 -64 -90 -82 -88 -83 -166 -210 -267 -231 -202 -102 -22 -5 -2 -4 -4 -4 -15 -16 -25 -26 -21 -26 -24 -21 -13 -12 -14 -22 -35 -24 -10 -23 -32 -3 -0 -0 -0
-248 -270 -0 -0 -0 -14 -63 -58 -95 -81 -45 -41 -19 -64 -87 -110 -179 -250 -219 -212 -132 -77 -27 -8 -1 -2 -9 -4 -1 -2 -11 -18 -22 -28 -23 -13 -8 -11 -9 -15 -16 -6 -0 -0 -0 -9 -9 -0 -0
-214 -38 -128 -87 -0 -120 -76 -82 -122 -50 -60 -54 -50 -71 -127 -142 -179 -195 -171 -185 -163 -41 -17 -1 -0 -3 -9 -4 -6 -0 -0 -1 -14 -12 -2 -0 -2 -10 -9 -14 -23 -7 -7 -21 -3 -0 -3 -3 -0
-197 -181 -80 -73 -95 -0 -100 -84 -196 -93 -90 -82 -82 -113 -116 -102 -123 -158 -166 -166 -182 -62 -16 -1 -0 -2 -4 -8 -1 -0 -0 -0 -0 -0 -0 -0 -4 -28 -34 -34 -29 -15 -1 -3 -3 -0 -0 -0 -0
-79 -150 -46 -79 -51 -119 -136 -136 -125 -59 -61 -89 -96 -128 -118 -115 -91 -121 -113 -112 -120 -110 -15 -3 -0 -0 -0 -0 -2 -1 -0 -0 -0 -0 -1 -6 -6 -17 -14 -30 -28 -22 -10 -1 -1 -0 -0 -0 -1
-0 -99 -48 -53 -52 -74 -69 -155 -112 -79 -58 -82 -160 -102 -176 -105 -100 -96 -100 -68 -56 -54 -12 -5 -0 -0 -0 -0 -0 -0 -0 -0 -6 -0 -0 -0 -4 -11 -27 -51 -36 -25 -11 -0 -0 -5 -0 -5 -12
-184 -125 -0 -16 -35 -35 -82 -104 -126 -95 -78 -132 -207 -91 -110 -116 -91 -92 -69 -43 -34 -39 -14 -15 -1 -1 -1 -0 -0 -0 -0 -1 -0 -0 -0 -18 -16 -24 -34 -37 -40 -13 -0 -0 -0 -1 -0 -4 -14
-201 -0 -0 -0 -17 -21 -100 -73 -120 -119 -104 -145 -236 -222 -184 -145 -110 -90 -83 -52 -50 -36 -24 -8 -6 -10 -7 -7 -0 -0 -0 -0 -1 -3 -2 -6 -24 -34 -32 -37 -33 -32 -0 -0 -0 -2 -0 -3 -9
-106 -0 -0 -0 -53 -34 -81 -56 -90 -93 -105 -135 -249 -260 -227 -152 -106 -108 -118 -125 -80 -48 -30 -14 -10 -20 -27 -6 -3 -9 -3 -22 -18 -48 -21 -34 -43 -50 -46 -42 -25 -18 -3 -0 -2 -0 -0 -3 -31
-16 -2 -0 -24 -45 -54 -60 -72 -91 -85 -91 -103 -111 -244 -175 -103 -80 -97 -111 -116 -106 -57 -10 -12 -15 -20 -30 -30 -20 -17 -56 -47 -51 -41 -36 -33 -61 -50 -40 -55 -73 -56 -26 -11 -7 -4 -26 -32 -36
-0 -0 -3 -25 -37 -45 -21 -57 -72 -89 -74 -90 -197 -253 -207 -124 -101 -109 -97 -63 -74 -58 -50 -14 -33 -36 -40 -50 -44 -55 -53 -61 -38 -46 -33 -30 -69 -71 -0 -0 -0 -56 -50 -44 -26 -28 -44 -62 -82
-0 -0 -0 -32 -51 -20 -48 -38 -68 -126 -158 -167 -252 -245 -197 -132 -98 -85 -74 -72 -66 -75 -68 -44 -41 -42 -61 -54 -54 -52 -81 -76 -65 -42 -75 -73 -86 -17 -0 -0 -19 -39 -68 -52 -46 -62 -80 -99 -122
-0 -0 -0 -0 -0 -0 -27 -115 -145 -268 -308 -222 -238 -219 -160 -130 -74 -77 -69 -97 -86 -85 -85 -66 -72 -68 -72 -63 -77 -101 -120 -102 -90 -85 -107 -146 -91 -118 -0 -0 -0 -52 -70 -83 -89 -79 -119 -67 -99
-0 -0 -0 -0 -0 -89 -93 -90 -160 -297 -290 -228 -227 -186 -138 -70 -103 -83 -61 -75 -100 -98 -96 -103 -74 -76 -81 -87 -94 -151 -152 -130 -84 -81 -133 -169 -91 -96 -76 -83 -0 -0 -90 -99 -116 -122 -175 -114 -144
-0 -0 -0 -0 -80 -7 -0 -0 -263 -247 -195 -170 -164 -142 -105 -88 -110 -69 -92 -92 -102 -106 -107 -100 -67 -69 -90 -145 -172 -161 -143 -116 -74 -82 -140 -183 -37 -173 -136 -81 -38 -0 -97 -108 -118 -112 -129 -104 -79
-0 -0 -0 -0 -0 -137 -105 -70 -240 -227 -174 -118 -116 -197 -51 -67 -74 -68 -84 -86 -94 -100 -113 -115 -88 -82 -103 -147 -179 -165 -87 -78 -65 -78 -114 -153 -45 -177 -0 -172 -0 -115 -114 -116 -103 -91 -89 -68 -188
-0 -0 -0 -0 -0 -144 -86 -100 -215 -203 -148 -184 -196 -126 -43 -22 -70 -130 -124 -86 -93 -100 -108 -110 -90 -76 -69 -76 -76 -79 -91 -74 -67 -77 -116 -123 -96 -130 -145 -153 -55 -85 -84 -93 -140 -93 -91 -135 -155
-0 -0 -0 -0 -0 -21 -155 -139 -218 -214 -160 -199 -0 -18 -47 -138 -117 -165 -96 -90 -114 -104 -98 -85 -75 -65 -51 -52 -40 -62 -51 -50 -59 -69 -72 -46 -48 -76 -104 -105 -97 -72 -57 -58 -64 -76 -65 -90 -115
-0 -0 -0 -0 -0 -0 -0 -0 -246 -248 -231 -201 -188 -141 -77 -89 -68 -95 -104 -112 -112 -111 -113 -91 -63 -57 -60 -64 -70 -38 -49 -60 -60 -56 -44 -41 -43 -51 -55 -62 -42 -62 -59 -65 -86 -118 -53 -78 -117
-0 -0 -0 -0 -0 -0 -115 -115 -169 -218 -236 -201 -188 -214 -152 -116 -88 -84 -88 -88 -104 -105 -113 -103 -88 -70 -84 -87 -72 -59 -62 -79 -66 -65 -57 -56 -38 -32 -49 -48 -43 -56 -66 -63 -47 -60 -47 -53 -91
-0 -0 -0 -0 -0 -2 -160 -43 -37 -195 -159 -70 -174 -206 -174 -26 -147 -138 -108 -103 -108 -103 -123 -110 -112 -94 -82 -85 -65 -62 -54 -33 -47 -60 -55 -46 -52 -51 -58 -50 -63 -62 -70 -66 -51 -63 -75 -90 -66
-0 -0 -0 -0 -0 -13 -62 -30 -150 -241 -118 -127 -173 -175 -221 -177 -146 -128 -117 -142 -140 -121 -103 -116 -117 -110 -110 -102 -84 -75 -80 -69 -71 -94 -106 -91 -104 -97 -88 -88 -90 -79 -67 -80 -77 -74 -50 -67 -64
-0 -0 -0 -0 -0 -0 -94 -77 -105 -129 -130 -121 -103 -163 -206 -181 -168 -177 -191 -195 -158 -144 -125 -117 -130 -129 -133 -132 -123 -102 -83 -68 -66 -89 -91 -90 -135 -135 -85 -80 -108 -93 -72 -81 -81 -83 -59 -49 -53
-0 -0 -0 -0 -0 -0 -107 -40 -29 -131 -221 -164 -69 -84 -186 -74 -187 -172 -185 -184 -199 -171 -139 -126 -135 -123 -152 -145 -139 -123 -104 -94 -85 -85 -91 -77 -102 -136 -124 -125 -126 -104 -53 -63 -96 -39 -42 -46 -42
-0 -0 -0 -0 -0 -0 -206 -0 -125 -26 -207 -204 -106 -100 -148 -225 -0 -215 -223 -222 -204 -181 -178 -127 -106 -108 -134 -138 -143 -177 -149 -138 -115 -119 -120 -109 -125 -137 -171 -211 -202 -140 -63 -51 -45 -43 -42 -47 -33
-0 -0 -0 -0 -0 -0 -0 -0 -0 -93 -248 -144 -116 -102 -130 -175 -199 -213 -220 -202 -193 -182 -243 -239 -204 -167 -139 -130 -155 -173 -166 -144 -112 -122 -142 -131 -157 -158 -189 -246 -0 -176 -90 -51 -35 -35 -26 -34 -31
-0 -0 -0 -0 -0 -0 -127 -0 -0 -0 -163 -175 -160 -153 -171 -208 -204 -215 -209 -201 -208 -234 -270 -355 -250 -177 -146 -143 -154 -150 -137 -146 -147 -163 -188 -165 -140 -164 -188 -216 -241 -184 -123 -78 -35 -28 -30 -34 -42
-0 -0 -0 -0 -0 -0 -0 -118 -186 -13 -196 -141 -183 -213 -201 -211 -224 -224 -225 -238 -231 -225 -234 -218 -222 -186 -148 -124 -123 -135 -140 -120 -143 -146 -183 -184 -148 -140 -154 -145 -197 -189 -151 -107 -66 -47 -30 -27 -32
-0 -0 -0 -0 -0 -0 -0 -116 -314 -79 -353 -278 -227 -217 -231 -263 -300 -309 -344 -356 -318 -275 -208 -165 -135 -116 -124 -143 -117 -114 -137 -67 -126 -209 -204 -130 -131 -114 -115 -103 -98 -104 -107 -95 -78 -54 -50 -41 -40
Wind_Speed
15 14 14 7 13 11 10 10 10 13 12 16 17 17 19 13 16 16 18 22 25 26 26 24 22 22 20 21 21 22 22 21 21 21 20 21 22 21 20 20 17 17 17 18 18 18 18 18 17
18 16 15 14 10 6 8 8 15 17 17 11 11 13 15 16 14 16 21 21 25 25 25 24 23 23 18 19 19 18 19 20 19 18 18 18 18 19 18 18 16 16 16 17 17 17 17 17 16
19 16 19 18 9 9 9 10 14 12 16 14 12 13 14 14 13 17 18 23 23 24 23 23 23 22 20 20 19 18 17 19 17 16 16 15 16 17 15 16 15 15 15 16 16 16 16 15 15
19 15 12 23 10 15 9 8 18 17 13 11 11 14 12 13 19 23 22 23 22 22 22 23 23 22 21 19 21 21 18 17 19 17 14 14 14 13 13 13 14 14 14 14 14 14 14 14 14
16 17 15 22 18 23 22 21 19 21 15 13 13 13 15 10 19 21 22 22 22 22 22 22 23 21 21 20 21 21 20 19 17 16 14 14 16 13 12 14 13 12 13 13 13 13 13 13 13
14 17 16 17 20 19 20 20 18 18 16 14 15 14 16 14 18 20 20 20 21 22 21 21 21 20 21 20 19 19 19 17 16 17 17 16 13 13 15 13 13 12 12 12 12 12 12 12 12
15 15 15 16 16 15 12 12 15 16 13 14 14 15 14 14 15 16 16 16 17 19 18 18 20 19 21 21 20 20 18 16 15 15 14 14 13 10 10 12 12 12 12 12 12 12 13 12 12
14 15 14 15 17 16 14 11 13 11 12 14 14 16 13 12 14 13 11 14 16 18 17 18 19 19 20 19 20 20 19 20 19 18 16 12 9 10 11 14 13 13 12 12 13 13 12 12 12
13 15 14 15 16 17 17 14 10 11 14 14 15 14 13 13 14 12 12 12 15 17 18 16 17 18 19 17 19 19 19 18 14 14 17 14 17 14 21 19 16 14 14 14 13 13 12 12 11
13 13 15 15 15 15 16 16 16 14 11 12 16 16 14 15 16 15 13 15 19 20 19 17 17 18 19 17 17 16 17 15 13 13 13 6 9 16 20 21 18 18 18 17 15 13 13 12 12
12 13 14 13 14 14 15 14 13 11 11 9 10 14 13 13 14 13 14 15 18 17 17 17 16 16 17 15 14 14 15 12 11 9 6 10 10 18 19 19 20 21 18 17 16 14 13 11 11
17 18 19 16 18 14 14 14 13 8 12 8 9 13 13 12 12 14 13 11 13 17 18 15 16 17 17 12 14 13 12 11 13 11 10 11 19 20 19 17 19 20 18 17 15 13 13 11 10
16 19 17 19 17 14 14 15 15 13 15 13 12 12 11 11 11 11 8 8 8 14 15 15 14 16 16 13 11 12 11 9 11 12 7 13 7 21 21 19 18 19 19 15 15 14 13 12 12
19 20 20 17 12 13 14 18 16 23 16 12 12 11 8 9 9 2 4 8 10 13 14 12 14 13 13 14 12 13 11 9 9 9 10 8 10 8 21 20 19 20 19 18 16 15 13 12 11
17 16 17 15 15 10 15 19 23 20 17 16 14 10 6 4 4 1 4 7 12 18 14 15 15 12 13 16 14 13 9 8 9 10 10 14 10 17 15 21 21 21 20 14 11 13 13 12 11
14 14 13 15 18 16 15 20 21 18 15 14 13 13 9 9 5 3 12 8 14 13 18 17 13 13 14 17 13 8 9 6 8 7 8 10 21 24 25 23 22 21 20 17 19 16 14 10 10
14 13 16 18 20 14 14 19 22 16 14 13 12 19 6 8 6 2 18 23 21 19 19 19 15 15 17 16 11 11 12 8 6 4 4 7 11 26 26 25 24 21 21 18 17 14 13 11 13
14 15 17 18 19 17 17 20 19 19 15 10 7 13 14 11 6 27 24 24 24 21 19 17 18 19 16 13 10 9 11 13 11 7 8 9 13 23 24 27 25 23 21 20 20 17 14 12 11
17 18 19 19 14 17 18 17 17 14 15 14 7 13 12 23 7 27 23 24 22 21 18 17 18 19 16 13 13 8 9 15 12 16 16 11 11 8 25 30 27 24 21 21 20 19 15 13 14
19 20 17 16 14 15 16 16 15 14 10 15 15 15 22 21 24 23 22 24 22 22 20 19 19 19 18 14 13 14 22 19 17 18 19 18 20 28 28 30 29 26 23 20 19 19 18 17 13
22 21 18 15 13 14 12 15 16 11 10 16 17 16 19 24 25 24 24 24 23 22 22 21 20 20 19 19 19 18 16 16 13 14 19 21 22 26 28 29 29 27 24 22 21 20 18 16 12
21 16 20 13 10 14 15 14 13 10 14 11 15 16 22 23 27 25 24 24 23 21 21 21 20 19 18 14 18 17 16 16 14 15 19 20 23 25 27 28 28 25 25 24 22 20 16 13 14
19 15 14 15 10 11 15 13 14 11 15 10 8 19 22 25 25 25 24 22 21 20 20 19 18 18 18 17 17 17 16 15 15 16 19 19 20 23 27 28 29 29 26 23 23 22 20 16 14
10 12 11 12 13 15 17 15 13 14 12 10 12 19 24 25 25 24 22 21 19 19 19 18 17 17 17 17 16 16 16 15 14 15 16 18 20 21 23 28 30 29 28 26 25 22 21 17 13
4 10 16 14 14 17 17 15 12 11 14 12 10 20 24 24 25 23 21 20 18 17 18 18 17 17 17 16 15 15 16 14 14 15 14 14 16 20 21 20 26 30 29 27 26 22 24 18 16
9 15 12 12 13 17 18 16 9 13 17 9 10 16 24 23 22 22 20 19 17 16 16 15 17 18 17 16 16 14 14 15 15 15 15 15 16 18 17 19 19 18 29 29 25 24 26 24 21
12 15 14 12 16 17 18 17 9 22 7 9 9 9 9 21 20 19 19 18 17 15 13 8 14 15 16 17 15 15 12 12 14 16 16 15 14 15 14 12 11 13 8 4 11 16 19 23 26
16 9 14 16 14 16 17 19 11 7 5 10 9 9 8 8 10 11 14 15 16 16 17 11 11 13 13 14 15 11 10 9 10 12 14 16 17 14 11 10 11 9 6 5 6 9 14 19 24
11 16 13 13 16 13 16 18 14 13 11 8 12 9 7 8 11 12 14 15 18 20 20 18 10 4 9 11 9 7 5 4 5 8 13 14 14 15 14 12 10 9 8 6 6 8 14 15 19
13 11 10 15 16 16 15 19 11 12 15 2 8 7 6 7 11 12 14 16 18 20 21 21 20 18 19 21 22 24 19 15 6 4 12 11 13 14 12 9 10 9 11 9 7 7 8 8 14
Wind_Direction
131 103 90 358 276 290 285 304 15 237 252 234 120 140 164 248 126 102 107 114 116 119 120 116 110 105 99 98 97 98 99 99 101 102 101 100 103 99 95 91 73 62 58 53 55 55 64 66 63
103 83 11 58 302 300 297 300 251 201 220 9 28 53 204 136 82 80 104 113 119 117 119 119 116 111 103 102 98 94 97 99 98 97 96 96 94 96 92 88 73 66 58 56 58 60 62 61 67
61 44 62 59 290 299 347 312 260 237 214 242 338 214 191 113 65 104 105 114 115 116 117 118 117 114 108 107 105 101 100 104 99 96 94 92 93 96 84 85 78 69 64 66 66 65 69 66 69
26 336 183 78 9 27 23 278 201 207 242 303 350 332 275 160 106 121 111 116 115 116 116 119 119 115 114 109 112 115 107 106 113 106 97 94 97 88 79 84 81 74 69 79 83 87 80 75 83
335 10 12 84 53 143 143 183 116 152 215 329 348 348 355 242 85 103 111 119 121 120 121 120 122 118 118 113 115 116 120 118 112 107 105 103 107 97 93 108 98 85 88 103 108 107 97 86 96
337 14 19 36 60 128 150 131 128 150 185 7 6 19 35 69 91 109 109 117 122 125 121 121 123 121 123 119 119 119 122 116 113 120 117 119 102 103 117 113 113 111 121 118 109 114 113 97 93
351 349 358 13 21 56 89 68 95 110 44 8 44 24 27 75 90 101 104 109 116 122 120 120 124 122 128 126 126 127 122 119 114 122 115 110 101 58 74 93 116 120 124 120 121 125 125 123 116
351 351 326 357 11 5 21 63 346 358 19 27 26 14 45 90 96 93 91 105 116 126 123 124 125 127 127 124 128 131 129 138 130 131 125 101 90 87 105 153 148 144 134 122 132 132 128 130 120
340 340 328 6 17 35 57 61 7 42 24 347 347 38 38 92 98 93 94 101 118 126 132 127 129 130 130 124 133 130 134 131 112 125 149 126 149 314 220 201 174 164 159 142 141 139 143 149 106
358 333 333 354 33 25 45 65 87 61 56 29 350 11 67 102 111 112 110 117 131 138 140 136 135 133 135 128 126 129 131 124 112 131 135 41 338 300 276 240 191 181 179 175 163 149 154 154 107
318 318 271 295 295 51 41 78 67 50 61 71 65 60 74 106 112 116 116 122 132 134 138 142 139 136 136 129 123 124 125 101 94 63 15 315 339 279 277 279 232 210 196 185 178 164 146 128 110
258 233 253 302 8 69 44 49 41 79 25 87 92 92 85 107 120 126 119 114 118 135 140 141 143 143 143 129 133 122 108 100 118 90 327 313 272 262 271 272 238 232 195 192 171 168 166 150 150
288 258 290 313 325 63 62 21 19 13 4 35 83 92 89 106 125 126 107 100 106 130 136 139 141 147 147 140 125 126 121 105 121 121 59 307 358 240 235 249 264 240 227 179 180 161 159 163 158
279 255 256 335 352 83 19 352 35 354 26 55 74 73 75 105 123 101 93 103 114 131 136 131 138 142 143 147 141 141 128 115 112 100 115 81 310 130 261 263 256 242 232 212 179 150 162 153 149
274 305 317 338 328 2 57 352 344 22 56 72 75 65 40 90 77 13 2 97 128 147 139 142 142 137 145 155 151 150 133 114 130 114 112 144 122 287 292 245 250 244 251 203 84 122 151 158 145
319 341 336 326 301 307 339 345 9 47 65 74 79 48 81 117 108 340 286 310 131 130 146 147 139 143 148 160 154 141 140 118 124 115 107 120 184 204 226 236 236 246 247 180 218 191 156 140 140
327 334 327 316 328 338 348 2 347 53 80 82 60 9 45 105 19 111 264 229 158 148 149 154 147 148 156 158 149 152 155 141 125 76 97 120 149 246 243 244 238 249 235 254 199 208 143 124 117
307 316 322 323 348 12 358 345 341 14 78 126 127 67 120 103 56 200 211 205 169 153 147 142 150 159 154 149 137 140 151 164 156 133 140 145 257 265 257 237 236 240 244 252 253 244 141 115 34
291 295 292 291 39 6 357 326 311 277 86 94 135 149 50 131 218 178 203 168 147 147 140 141 151 160 149 141 146 130 141 171 165 182 176 158 156 266 257 227 232 231 243 242 273 282 272 40 53
276 273 294 315 8 343 313 319 313 305 260 113 107 144 156 193 190 190 193 178 147 151 146 145 156 154 153 145 139 139 207 197 187 189 191 185 182 219 215 214 216 222 229 222 217 245 256 266 66
255 254 280 310 356 338 329 327 327 280 171 105 108 147 184 183 179 188 185 169 156 155 157 159 155 158 157 160 162 168 170 187 160 176 198 198 188 199 205 208 208 212 226 231 231 237 270 275 17
253 283 268 346 26 355 279 354 301 271 329 142 114 163 185 178 174 176 174 170 169 166 163 165 161 159 164 143 171 171 172 178 174 181 191 189 196 202 199 196 194 190 217 241 241 251 299 353 354
261 309 306 301 325 316 307 317 260 261 307 279 232 136 186 176 176 174 165 173 176 173 166 161 160 165 165 163 168 172 179 180 185 189 194 187 181 189 203 199 200 215 245 255 252 258 284 326 343
334 313 312 295 296 299 300 312 302 309 291 243 199 157 162 168 168 172 171 176 181 178 174 169 162 171 169 168 172 176 184 181 182 180 181 187 186 182 183 198 210 214 222 239 246 274 286 316 347
13 296 279 296 296 292 298 328 10 332 202 215 238 164 157 166 167 162 163 168 171 171 177 178 175 180 173 172 176 181 184 180 184 184 174 168 176 182 180 176 193 211 218 235 249 281 276 309 323
292 270 285 302 301 307 305 309 55 103 209 302 358 192 141 153 166 165 167 182 180 187 174 176 186 188 184 183 188 180 179 185 188 184 181 181 183 182 177 176 177 178 254 260 274 280 274 282 297
282 272 275 298 300 313 312 310 86 232 4 1 355 15 209 175 184 187 178 182 192 193 165 93 178 173 183 190 185 189 173 173 192 196 192 189 180 180 172 167 172 177 182 277 306 301 299 290 280
274 273 274 282 304 307 319 294 335 103 317 307 302 306 320 347 355 339 310 329 270 216 223 176 173 186 184 190 194 181 170 156 164 180 189 195 199 182 171 169 175 183 199 232 288 304 302 300 290
267 264 286 298 295 316 314 302 119 80 324 316 269 289 329 14 11 353 344 342 345 343 341 349 7 129 181 188 187 186 151 116 82 164 194 194 193 192 185 180 177 187 198 219 245 278 295 296 297
268 279 297 292 299 303 313 295 3 107 65 314 272 55 10 359 30 17 1 358 357 359 360 2 0 355 335 328 323 317 331 342 28 214 207 200 200 198 195 194 197 199 202 210 231 229 267 252 289